#timestamp,LO_Frequency,Hit,StdDev 
1571828415.3,286047002.6,N
1571828435.1,286047002.3,N
1571828455.9,286047004.4,N
1571828475.7,286047003.6,N
1571828495.5,286047002.9,N
1571828515.4,286047003.6,N
1571828535.2,286047001.7,N
1571828555.1,286047002.4,N
1571828556.0,286047002.4,N
1571828575.8,286046999.7,N
1571828595.6,286047002.8,N
1571828615.5,286047000.6,N
1571828635.3,286047001.0,N
1571828655.1,286047001.0,N
1571828675.9,286047001.1,N
1571828695.7,286046998.5,N
1571828715.6,286047001.0,N
1571828735.4,286047000.5,N
1571828755.2,286047001.0,N
1571828775.1,286047001.1,N
1571828776.0,286047001.1,N
1571828795.8,286046998.7,N
1571828815.6,286046998.9,N
1571828835.5,286046998.1,N
1571828855.3,286046999.1,N
1571828875.2,286046998.9,N
1571828895.9,286046998.1,N
1571828915.7,286046998.5,N
1571828935.6,286046999.6,N
1571828955.4,286046999.4,N
1571828975.2,286047000.9,N
1571828995.1,286046998.5,N
1571828996.0,286046998.5,N
1571829015.8,286046999.9,N
1571829035.7,286046999.9,N
1571829055.5,286046999.7,N
1571829075.3,286047000.2,N
1571829095.2,286047000.4,N
1571829115.9,286047001.0,N
1571829135.7,286047000.6,N
1571829155.6,286046998.5,N
1571829175.4,286046998.5,N
1571829195.2,286047000.8,N
1571829215.1,286047002.5,N
1571829216.0,286047002.5,N
1571829235.8,286047002.5,N
1571829255.7,286047001.8,N
1571829275.5,286047001.8,N
1571829295.3,286046999.7,N
1571829315.2,286046999.9,N
1571829335.0,286047001.2,N
1571829335.9,286047001.2,N
1571829355.7,286047001.1,N
1571829375.6,286047000.5,N
1571829395.4,286046998.6,N
1571829415.3,286046999.2,N
1571829435.1,286046996.9,N
1571829436.0,286046996.9,N
1571829455.8,286046998.9,N
1571829475.7,286046997.1,N
1571829495.5,286046999.0,N
1571829515.3,286046999.3,N
1571829535.2,286047001.0,N
1571829555.0,286047001.2,N
1571829555.9,286047001.2,N
1571829575.8,286046998.1,N
1571829595.6,286047001.2,N
1571829615.4,286047001.1,N
1571829635.3,286046998.2,N
1571829655.1,286046999.0,N
1571829675.9,286046998.7,N
1571829695.7,286046999.4,N
1571829715.5,286047000.8,N
1571829735.4,286047000.9,N
1571829755.2,286046998.4,N
1571829775.0,286047001.0,N
1571829775.9,286047001.0,N
1571829795.8,286046998.2,N
1571829815.6,286046999.3,N
1571829835.4,286046999.5,N
1571829855.3,286046998.9,N
1571829875.1,286046998.3,N
1571829895.9,286046998.4,N
1571829915.7,286047000.7,N
1571829935.5,286047001.1,N
1571829955.4,286046998.6,N
1571829975.2,286047000.5,N
1571829995.0,286047000.3,N
1571829995.9,286047000.3,N
1571830015.8,286046998.9,N
1571830035.6,286046998.6,N
1571830055.5,286046999.3,N
1571830075.3,286046996.5,Y
1571830095.1,286046999.2,P
1571830115.9,286046998.6,P
1571830135.7,286047001.1,N
1571830155.5,286046998.5,N
1571830175.4,286046999.3,N
1571830195.2,286046999.6,N
1571830215.1,286046996.8,Y
1571830216.0,286046996.8,P
1571830235.8,286046997.1,N
1571830255.6,286046999.0,N
1571830275.5,286046998.7,N
1571830295.3,286046998.9,N
1571830315.1,286046998.8,N
1571830335.9,286046996.6,Y
1571830355.7,286047000.2,P
1571830375.6,286046998.5,N
1571830395.4,286047000.9,N
1571830415.2,286047000.2,N
1571830435.1,286047000.6,N
1571830436.0,286047000.6,N
1571830455.8,286047000.9,N
1571830475.6,286046999.7,N
1571830495.5,286047001.0,N
1571830515.3,286047001.0,N
1571830535.2,286047000.6,N
1571830555.9,286047000.4,N
1571830575.7,286047000.2,N
1571830595.6,286047000.0,N
1571830615.4,286047001.1,N
1571830635.2,286047000.7,N
1571830655.1,286047000.2,N
1571830656.0,286047000.2,N
1571830675.8,286047000.5,N
1571830695.7,286047001.2,N
1571830715.5,286046998.7,N
1571830735.3,286047000.8,N
1571830755.2,286046998.6,N
1571830775.0,286047001.1,N
1571830775.9,286047001.1,N
1571830795.7,286047000.3,N
1571830815.6,286046998.5,N
1571830835.4,286046998.9,N
1571830855.3,286046999.9,N
1571830875.1,286047000.6,N
1571830876.0,286047000.6,N
1571830895.8,286046998.2,N
1571830915.7,286046996.5,Y
1571830935.5,286046996.9,P
1571830955.4,286046996.5,N
1571830975.2,286046998.3,N
1571830995.0,286047000.1,N
1571830995.9,286047000.1,N
1571831015.8,286046999.9,N
1571831035.6,286047000.0,N
1571831055.4,286047001.1,N
1571831075.3,286047000.4,N
1571831095.1,286047000.2,N
1571831115.9,286047001.6,N
1571831135.7,286047002.8,N
1571831155.5,286047002.7,N
1571831175.4,286047004.0,N
1571831195.2,286047001.8,N
1571831215.1,286047001.4,N
1571831216.0,286047001.4,N
1571831235.8,286047002.5,N
1571831255.6,286047001.8,N
1571831275.5,286047004.3,N
1571831295.3,286047002.7,N
1571831315.1,286047002.7,N
1571831335.9,286047002.3,N
1571831355.7,286047001.8,N
1571831375.6,286047001.9,N
1571831395.4,286047001.5,N
1571831415.2,286047002.8,N
1571831435.1,286047001.9,N
1571831436.0,286047001.9,N
1571831455.8,286047001.7,N
1571831475.7,286047002.5,N
1571831495.5,286047002.3,N
1571831515.3,286047002.1,N
1571831535.2,286047003.7,Y
1571831555.0,286047002.4,P
1571831555.9,286047002.4,P
1571831575.7,286047000.6,N
1571831595.6,286047002.7,Y
1571831615.4,286046998.6,P
1571831635.3,286046998.5,N
1571831655.1,286047000.9,N
1571831675.8,286046998.9,N
1571831695.7,286047000.0,N
1571831715.5,286047000.5,N
1571831735.4,286046999.3,N
1571831755.2,286046999.1,N
1571831775.0,286046995.3,Y
1571831806.0,286046995.6,E
1571831815.9,286046997.0,N
1571831835.7,286047000.8,P
1571831855.6,286046998.8,N
1571831875.4,286046998.3,N
1571831895.2,286047000.7,N
1571831915.1,286047000.7,N
1571831916.0,286047000.7,N
1571831935.8,286047001.0,N
1571831955.6,286047000.9,N
1571831975.5,286047002.2,N
1571831995.3,286047002.4,N
